Location: Girdwood
(60.9430°N, 149.1660°W)
Time: 12:35:03
(UTC-08:00)

Iridium 86 - Visible Passes

Search period start: 26 July 2017 00:00
Search period end: 05 August 2017 00:00
Orbit: 776 x 779 km, 86.4° (Epoch: 26 July)

Date Brightness Start Highest point End Pass type
(mag) Time Alt. Az. Time Alt. Az. Time Alt. Az.
26 Jul 8.2 01:42:42 10° ENE 01:43:50 11° ENE 01:44:58 10° NE visible
26 Jul 6.6 03:18:23 10° SSE 03:23:15 41° E 03:28:09 10° NNE visible
27 Jul 7.2 02:45:33 10° SE 02:49:56 28° ENE 02:54:22 10° NNE visible
28 Jul 7.7 02:13:04 10° ESE 02:16:45 20° ENE 02:20:25 10° NNE visible
28 Jul 5.7 03:51:30 10° S 03:56:44 79° E 04:01:59 10° N visible
29 Jul 7.9 01:41:08 10° E 01:43:38 14° ENE 01:46:08 10° NE visible
29 Jul 6.2 03:18:12 10° SSE 03:23:15 53° E 03:28:21 10° NNE visible
30 Jul 6.8 02:45:11 10° SE 02:49:53 35° E 02:54:38 10° NNE visible
31 Jul 7.3 02:12:29 10° SE 02:16:38 25° ENE 02:20:47 10° NNE visible
31 Jul 5.6 03:51:36 10° S 03:56:51 83° W 04:02:07 10° N visible
01 Aug 7.7 01:40:11 10° ESE 01:43:28 17° ENE 01:46:45 10° NNE visible
01 Aug 5.8 03:18:08 10° S 03:23:19 67° E 03:28:32 10° N visible
02 Aug 8.0 01:08:40 10° E 01:10:24 12° ENE 01:12:08 10° NE visible
02 Aug 6.4 02:44:57 10° SSE 02:49:53 45° E 02:54:51 10° NNE visible
02 Aug 6.2 04:25:42 10° SW 04:30:41 44° WNW 04:35:44 10° N visible
03 Aug 6.9 02:12:03 10° SE 02:16:34 31° ENE 02:21:06 10° NNE visible
03 Aug 5.7 03:51:56 11° SSW 03:57:00 66° W 04:02:14 10° N visible
04 Aug 7.4 01:39:29 10° ESE 01:43:21 21° ENE 01:47:12 10° NNE visible
04 Aug 5.6 03:18:38 13° S 03:23:24 85° E 03:28:40 10° N visible
